Modesto, CA

1:48 PM PST on December 12, 2019 (GMT -0800)
Modesto City-County-Sham

Weather History for KMOD - September, 2019

Change the Weather History Date:

Thursday, September 19, 2019

  Actual Average Record
Temperature  
Mean Temperature 68 °F -  
Max Temperature 79 °F 89 °F 102 °F (1939)
Min Temperature 57 °F 59 °F 44 °F (1965)
Degree Days  
Heating Degree Days 0 0  
Month to date heating degree days 0 0  
Since 1 July heating degree days 0 0  
Cooling Degree Days 3 9  
Month to date cooling degree days 193 193  
Year to date cooling degree days 1628 1529  
Growing Degree Days 18 (Base 50)    
Moisture  
Dew Point 49 °F    
Average Humidity 58    
Maximum Humidity 86    
Minimum Humidity 30    
Precipitation  
Precipitation 0.00 in 0.01 in 0.28 in (1956)
Month to date precipitation 0.12 0.11  
Year to date precipitation 8.98 8.88  
Snow  
Snow 0.00 in - - ()
Month to date snowfall 0.0  
Since 1 July snowfall 0.0  
Since 1 September snowfall 0.0  
Snow Depth 0.00 in    
Sea Level Pressure  
Sea Level Pressure 29.90 in    
Wind  
Wind Speed 10 mph (NW)    
Max Wind Speed 20 mph    
Max Gust Speed 23 mph    
Visibility 10 miles    
Events      
T = Trace of Precipitation, MM = Missing Value Source: NWS Daily Summary

Daily Weather History Graph

Daily Weather History Graph

Search for Another Location

Airport or City:

Astronomy

Sep. 19, 2019 Rise Set
Actual Time 6:48 AM PDT 7:05 PM PDT
Civil Twilight 6:22 AM PDT 7:31 PM PDT
Nautical Twilight 5:52 AM PDT 8:02 PM PDT
Astronomical Twilight 5:20 AM PDT 8:33 PM PDT
Moon 10:23 PM PDT (9/19) 11:52 AM PDT (9/19)
Length of Visible Light 13h 08m
Length of Day
12h 16m
Waning Gibbous, 73% of the Moon is Illuminated
Sep 19
Waning Gibbous
Sep 21
Last Quarter
Sep 28
New
Oct 5
First Quarter
Oct 13
Full

Hourly Weather History & Observations

Time (PDT) Temp. Dew Point Humidity Pressure Visibility Wind Dir Wind Speed Gust Speed Precip Events Conditions
12:53 AM 63.0 °F 51.1 °F 65% 29.90 in 10.0 mi NW 9.2 mph - N/A   Clear
1:53 AM 61.0 °F 52.0 °F 72% 29.90 in 10.0 mi NW 6.9 mph - N/A   Clear
2:53 AM 61.0 °F 52.0 °F 72% 29.90 in 10.0 mi NNW 6.9 mph - N/A   Clear
3:53 AM 59.0 °F 52.0 °F 78% 29.89 in 10.0 mi NNW 4.6 mph - N/A   Clear
4:53 AM 57.9 °F 52.0 °F 81% 29.90 in 10.0 mi NNW 5.8 mph - N/A   Clear
5:53 AM 57.9 °F 52.0 °F 81% 29.90 in 10.0 mi NNW 9.2 mph - N/A   Clear
6:53 AM 57.9 °F 53.1 °F 84% 29.91 in 10.0 mi NW 10.4 mph - N/A   Clear
7:53 AM 60.1 °F 53.1 °F 78% 29.94 in 10.0 mi NW 11.5 mph - N/A   Clear
8:53 AM 64.0 °F 51.1 °F 63% 29.94 in 10.0 mi NW 12.7 mph - N/A   Clear
9:53 AM 66.9 °F 51.1 °F 57% 29.94 in 10.0 mi NNW 15.0 mph - N/A   Clear
10:53 AM 70.0 °F 50.0 °F 49% 29.95 in 10.0 mi NW 13.8 mph - N/A   Clear
11:53 AM 73.0 °F 51.1 °F 46% 29.94 in 10.0 mi WNW 12.7 mph - N/A   Clear
12:53 PM 73.9 °F 48.9 °F 41% 29.93 in 10.0 mi North 15.0 mph - N/A   Clear
1:53 PM 77.0 °F 48.0 °F 36% 29.91 in 10.0 mi NW 13.8 mph 18.4 mph N/A   Clear
2:53 PM 77.0 °F 46.9 °F 34% 29.89 in 10.0 mi WNW 8.1 mph - N/A   Clear
3:53 PM 79.0 °F 45.0 °F 30% 29.88 in 10.0 mi NNW 15.0 mph - N/A   Clear
4:53 PM 78.1 °F 44.1 °F 30% 29.88 in 10.0 mi NW 15.0 mph - N/A   Clear
5:53 PM 77.0 °F 44.1 °F 31% 29.87 in 10.0 mi NW 13.8 mph - N/A   Clear
6:53 PM 75.0 °F 45.0 °F 34% 29.87 in 10.0 mi NNW 12.7 mph - N/A   Clear
7:53 PM 71.1 °F 45.0 °F 39% 29.87 in 10.0 mi NW 5.8 mph - N/A   Clear
8:53 PM 68.0 °F 46.0 °F 45% 29.88 in 10.0 mi NW 9.2 mph - N/A   Clear
9:53 PM 68.0 °F 46.9 °F 47% 29.88 in 10.0 mi WNW 8.1 mph - N/A   Clear
10:53 PM 66.0 °F 48.9 °F 54% 29.88 in 10.0 mi West 6.9 mph - N/A   Clear
11:53 PM 66.0 °F 50.0 °F 56% 29.88 in 10.0 mi NW 12.7 mph - N/A   Clear